カタログに戻る

COSMOS 2499 DEB

運用中PO
NORAD 49942·DEBRIS·🇷🇺 Russia

打ち上げ May 23, 2014 から Plesetsk Cosmodrome

Loading…

次のパス (今後24時間)

TLE

最新Source: Space-Track

元期: Sep 14, 2026, 12:41 UTC

1 49942U 14028Z   26257.52895549  .00001753  00000-0  65070-2 0  9998
2 49942  82.4578 194.9485 0194543 148.1977 213.1052 12.85823849227697

AllMySatでCOSMOS 2499 DEBをリアルタイム追跡

Download on the App Store